Location: Unspecified
(40.7945°N, 111.1337°W)
Time: 14:10:44
(UTC-06:00)

ISS - Pass Details

Date: 31 March 2019
Orbit: 408 x 410 km, 51.6° (Epoch: 21 April)

Event Time Altitude Azimuth Distance (km) Brightness Sun altitude
Rises 20:43:24 0° 305° (NW) 2,331 1.5 -11.1°
Reaches altitude 10° 20:46:25 10° 336° (NNW) 1,469 -0.4 -11.6°
Maximum altitude 20:48:00 13° 5° (N) 1,307 -1.1 -11.9°
Drops below altitude 10° 20:49:36 10° 34° (NE) 1,468 -1.2 -12.2°
Enters shadow 20:50:44 - 49° (NE) 1,737 -0.9 -12.4°
